Location: Charlottesville
(38.0290°N, 78.4770°W)
Time: 10:45:50
(UTC-05:00)

Tiangong 2 - Pass Details

Date: 08 October 2017
Orbit: 386 x 390 km, 42.8° (Epoch: 17 December)

Event Time Altitude Azimuth Distance (km) Brightness Sun altitude
Exits shadow 05:50:23 27° 192° (SSW) 793 2.4 -17.7°
Maximum altitude 05:51:29 36° 149° (SSE) 641 2.3 -17.5°
Drops below altitude 10° 05:54:28 10° 81° (E) 1,424 5.3 -16.9°
Sets 05:56:38 0° 72° (ENE) 2,284 6.6 -16.5°
